Regional Weather Roundup
Issued by NWS

Home | Current Version | Previous Version | Graphics & Text | Print | Product List | Glossary On
Versions: 1 2 3 4 5 6 7 8 9 10 11 12 13 14 15 16 17 18 19 20 21 22 23 24 25 26 27 28 29 30 31 32 33 34 35 36 37 38 39 40 41 42 43 44 45 46 47 48 49 50
000
ASUS44 KMEG 270010
RWRTN
TENNESSEE HOURLY STATE WEATHER ROUNDUP
NATIONAL WEATHER SERVICE MEMPHIS TN
700 PM CDT WED APR 26 2017

TNZ002-004-019-021-049-052-054-088>092-270100-
WEST TENNESSEE

CITY           SKY/WX    TMP DP  RH WIND       PRES   REMARKS
MEMPHIS INTL   CLOUDY    77  60  55 S16       29.47F
NWS MEMPHIS      N/A     76 N/A N/A MISG        N/A
JACKSON        CLOUDY    76  59  55 S13G24    29.52S
DYERSBURG      LGT RAIN  61  55  82 NW15G23   29.54R
SOMERVILLE     CLEAR     75  59  57 S10       29.51S
UNION CITY     MOCLDY    75  61  60 S16G22    29.47S
BOLIVAR        CLEAR     75  59  57 SE13      29.52F
PARIS          CLEAR     72  55  56 S12       29.52F
HUNTINGDON     CLEAR     75  59  57 S13       29.51F
LEXINGTON      CLEAR     75  55  50 S7        29.54F
SAVANNAH       CLEAR     75  59  57 S12G21    29.56F HAZE
$$

TNZ008-025-027-028-033-062-065-066-270100-
NORTH MIDDLE TENNESSEE

CITY           SKY/WX    TMP DP  RH WIND       PRES   REMARKS
NASHVILLE      PTCLDY    78  58  49 S18       29.60F
PORTLAND       CLEAR     77  57  50 S13       29.59S
CLARKSVILLE    CLEAR     77  52  41 S12G23    29.54F
SMYRNA         CLEAR     77  60  55 S10G21    29.61F
COOKEVILLE     CLEAR     77  57  50 S9        29.63S
GALLATIN       CLEAR     79  57  47 VRB5      29.62F
CROSSVILLE     CLEAR     73  55  53 S7        29.71F
$$

TNZ061-075-076-078-094-096-097-270100-
SOUTH MIDDLE TENNESSEE

CITY           SKY/WX    TMP DP  RH WIND       PRES   REMARKS
FAYETTEVILLE   CLEAR     73  59  60 S8        29.65F
TULLAHOMA      CLEAR     73  55  53 S10       29.67S
WINCHESTER     CLEAR     75  61  60 S3        29.67F
MCMINNVILLE    CLEAR     75  59  57 S7        29.66S
COLUMBIA       CLEAR     75  61  60 S9        29.59F
SHELBYVILLE    CLEAR     75  61  60 S10       29.64F
$$

TNZ017-018-042-046-047-270100-
NORTHEAST TENNESSEE

CITY           SKY/WX    TMP DP  RH WIND       PRES   REMARKS
TRI CITIES     CLOUDY    78  57  48 SE3       29.71S
ELIZABETHTON   CLOUDY    79  59  50 SE5       29.72R
$$

TNZ012-013-036-069-073-074-270100-
CENTRAL EAST TENNESSEE

CITY           SKY/WX    TMP DP  RH WIND       PRES   REMARKS
KNOXVILLE      MOCLDY    79  61  53 SW3       29.67F
OAK RIDGE      CLEAR     79  59  50 VRB3      29.69S
DOWNTOWN KNOXV CLEAR     75  63  64 CALM      29.67F
GATLINBURG     CLEAR     75  61  60 CALM      29.68S
MORRISTOWN     CLEAR     77  59  53 CALM      29.70R
JACKSBORO      CLEAR     77  59  53 S5        29.70F
$$

TNZ083-085-099-270100-
SOUTHEAST TENNESSEE

CITY           SKY/WX    TMP DP  RH WIND       PRES   REMARKS
CHATTANOOGA    PTCLDY    79  57  46 S10G18    29.69F
$$

SKY/WX REPORTED AS FAIR MEANS FEW OR NO CLOUDS BELOW
12 THOUSAND FEET.




USA.gov is the U.S. government's official web portal to all federal, state and local government web resources and services.